DELTA 1 DEB, 42081

Orbit data source: Space-Track

DELTA 1 DEB, 42081 is space debris in SSO originally from a launch on Sun, 15 Dec 1968 UTC launched from the Air Force Western Test Range (AFWTR). Debris objects in space refer to the collection of defunct objects orbiting the Earth. Examples of debris include non-operational satellites, rocket bodies, and fragments generated from explosions, collisions, or faulty payload assembly.

Loading next visibility...
DELTA 1 DEB details
Identifier
42081, 1968-114H
Orbit
SSO
Last TLE update2 days ago
Origin
Flag of USGSFC (US)
ManufacturerAerojet
MissionSpacecraft
Bus & MotorUnknown
MassUnknown
Launch date (UTC)
1968-12-15 (56 years ago)
Launch vehicleUnknown
Launch site
Air Force Western Test Range (AFWTR)
Object type
Payload
Rocket body
Debris
Shape & HBRUnknown
Radar Cross SectionSmall (<0.1 m²)

Expand to show TLE details & history

TLE from 2 days ago
0 DELTA 1 DEB
1 42081U 68114H   24360.17907353  .00000029  00000-0  57773-3 0  9998
2 42081 101.6307 326.1840 0116755 269.8096  88.9585 12.31693682436405
Epoch: 2024-12-25T04:17Z
Definitive object data (Epoch: 2024-12-25T04:17:51.952Z)
Latitude-0.00006°
Longitude167.54101°
Altitude1,543.963 km
Speed7.095 km/s
True Right ascension21h 44m 44s
True Declination0° 00' 00"
Sunlit
Object was in daylight at TLE epoch
Visualization TLE readout
Latitude-28.48104°
Longitude-17.26619°
Altitude1,502.268 km
Speed7.135 km/s
Apparent Right ascension08h 45m 28s
Apparent Declination-34° 00' 49"
Sunlit
Object is in daylight
Visualization observer readout
Local Sidereal Time19:48:33
Azimuth293.003° NW
Elevation-77.21°
Doppler factor1
Orbital elements
Apogee altitude1,632.019 km
Perigee altitude1,447.133 km
Semi-major axis7,917.713 km
Eccentricity0.0116755
Inclination101.6307°
RAAN326.184°
Arg. of periapsis269.8096°
True anomaly90.29643°
Mean anomaly88.9585°
Eccentric anomaly89.62744°
Mean motion3.08066 °/min
BSTAR0.00057773
Orbital period116.86 mins
Loading maneuver chart data...
Loading historical data...
Loading historical data...
Loading historical data...
Loading historical data...
Loading historical data...
Loading historical data...
Loading historical data...

DELTA 1 DEB Visibility forecast

Observer location: undefined°, undefined

Span
Click to sort rows by Start time (UTC) header in descending order
Start Az.
Max El. time (UTC)
Max El. Az.
Max El.
End time (UTC)
End Az.
17 mins2024-12-26 21:19:43.737Z148.943° SSE2024-12-26 21:27:43.737Z75.564° E43.463°2024-12-26 21:36:43.737Z347.067° N
12 mins2024-12-26 23:17:43.737Z220.895° SW2024-12-26 23:23:43.737Z271.185° WNW23.769°2024-12-26 23:29:43.737Z316.385° NNW
13 mins2024-12-27 09:36:43.737Z43.781° NE2024-12-27 09:42:43.737Z93.764° ESE26.643°2024-12-27 09:49:43.737Z150.71° SSE
15 mins2024-12-27 11:30:43.737Z9.063° NNE2024-12-27 11:37:43.737Z302.948° NW41.796°2024-12-27 11:45:43.737Z216.865° SW
7 mins2024-12-27 13:27:43.737Z337.344° NNW2024-12-27 13:30:43.737Z316.007° NNW15.061°2024-12-27 13:34:43.737Z287.731° WNW
|